Weather History for Phuket, Thailand

Change the Weather History Date:

Wednesday, August 29, 2012

  Actual Average Record
Temperature  
Mean Temperature 82 °F -  
Max Temperature 88 °F 87 °F 95 °F (1997)
Min Temperature 75 °F 76 °F 73 °F (1999)
Cooling Degree Days 16    
Growing Degree Days 32 (Base 50)    
Moisture  
Dew Point 74 °F    
Average Humidity 80    
Maximum Humidity 95    
Minimum Humidity 62    
Precipitation  
Precipitation 0.31 in 0.54 in - ()
Sea Level Pressure  
Sea Level Pressure 29.87 in    
Wind  
Wind Speed 7 mph ()    
Max Wind Speed 23 mph    
Max Gust Speed 34 mph    
Visibility 4.9 miles    
Events Rain    
Averages and records for this station are not official NWS values.
T = Trace of Precipitation, MM = Missing Value Source: Averaged Metar Reports

Daily Weather History Graph

Daily Weather History Graph

Search for Another Location

Airport:

Trip Planner

Search our weather history database for the weather conditions in past years. The results will help you decide how hot, cold, wet, or windy it might be!

Date:

Astronomy

Aug. 29, 2012 Rise Set
Actual Time 6:18 AM ICT 6:36 PM ICT
Civil Twilight 5:57 AM ICT 6:57 PM ICT
Nautical Twilight 5:33 AM ICT 7:22 PM ICT
Astronomical Twilight 5:08 AM ICT 7:46 PM ICT
Moon 4:44 PM ICT (8/29) 3:59 AM ICT (8/29)
Length of Visible Light 12h 59m
Length of Day
12h 17m
Waxing Gibbous, 93% of the Moon is Illuminated
Aug 29
Waxing Gibbous
Aug 31
Full
Sep 8
Last Quarter
Sep 16
New
Sep 23
First Quarter

Hourly Weather History & Observations

Time (ICT) Temp. Heat Index Dew Point Humidity Pressure Visibility Wind Dir Wind Speed Gust Speed Precip Events Conditions
12:00 AM 77.0 °F - 73.4 °F 89% 29.89 in 1.9 mi WSW 8.1 mph - N/A Rain Rain
1:00 AM 78 °F - 76 °F 94% 29.84 in 4 mi West 5.8 mph - - Rain Light Rain
1:00 AM 77.0 °F - 73.4 °F 89% 29.86 in 1.9 mi WSW 9.2 mph - N/A Rain Rain
1:30 AM 77.0 °F - 73.4 °F 89% 29.86 in 1.9 mi SW 17.3 mph - N/A Rain Rain
2:30 AM 78.8 °F - 73.4 °F 83% 29.86 in 1.9 mi SW 9.2 mph - N/A Rain Rain
3:00 AM 77.0 °F - 73.4 °F 89% 29.86 in 1.9 mi WSW 9.2 mph - N/A Rain Rain
4:30 AM 77.0 °F - 73.4 °F 89% 29.86 in 3.1 mi WSW 6.9 mph - N/A Rain Rain
5:00 AM 75.2 °F - 71.6 °F 89% 29.86 in 1.9 mi West 23.0 mph 34.5 mph N/A Rain Rain
5:30 AM 75.2 °F - 71.6 °F 89% 29.89 in 1.9 mi Variable 2.3 mph - N/A   Overcast
6:00 AM 75.2 °F - 73.4 °F 94% 29.86 in 3.1 mi Calm Calm - N/A Rain Rain
6:30 AM 75.2 °F - 73.4 °F 94% 29.86 in 4.3 mi Calm Calm - N/A   Overcast
7:00 AM 77 °F - 76 °F 95% 29.84 in 4 mi West 4.6 mph - - Rain Light Rain
7:00 AM 75.2 °F - 73.4 °F 94% 29.89 in 4.3 mi East 2.3 mph - N/A   Mostly Cloudy
7:30 AM 75.2 °F - 71.6 °F 89% 29.89 in 1.2 mi West 17.3 mph - N/A Rain Rain
8:00 AM 75.2 °F - 73.4 °F 94% 29.89 in 3.1 mi Calm Calm - N/A Rain Light Rain
8:30 AM 77.0 °F - 75.2 °F 94% 29.92 in 5.6 mi Calm Calm - N/A   Mostly Cloudy
9:00 AM 82.4 °F 89.5 °F 75.2 °F 79% 29.92 in 5.6 mi Variable 3.5 mph - N/A   Mostly Cloudy
9:30 AM 84.2 °F 92.3 °F 75.2 °F 74% 29.92 in 5.6 mi West 9.2 mph - N/A   Mostly Cloudy
10:00 AM 84.2 °F 90.9 °F 73.4 °F 70% 29.92 in 5.6 mi West 9.2 mph - N/A   Mostly Cloudy
10:30 AM 84.2 °F 90.9 °F 73.4 °F 70% 29.89 in 5.6 mi Variable 9.2 mph - N/A   Mostly Cloudy
11:00 AM 84.2 °F 92.3 °F 75.2 °F 74% 29.89 in 6.2 mi West 10.4 mph - N/A   Mostly Cloudy
11:30 AM 84.2 °F 92.3 °F 75.2 °F 74% 29.89 in 6.2 mi WSW 8.1 mph - N/A   Scattered Clouds
12:00 PM 86.0 °F 95.1 °F 75.2 °F 70% 29.89 in 6.2 mi WSW 8.1 mph - N/A   Mostly Cloudy
12:30 PM 86.0 °F 95.1 °F 75.2 °F 70% 29.89 in 6.2 mi West 9.2 mph - N/A   Scattered Clouds
1:00 PM 86 °F - 77 °F 69% 29.85 in 6 mi West 6.9 mph - -   Partly Cloudy
1:00 PM 86.0 °F 95.1 °F 75.2 °F 70% 29.86 in 6.2 mi West 11.5 mph - N/A   Scattered Clouds
1:30 PM 87.8 °F 97.6 °F 75.2 °F 66% 29.86 in 6.2 mi West 10.4 mph - N/A   Scattered Clouds
2:00 PM 87.8 °F 95.6 °F 73.4 °F 62% 29.86 in 6.2 mi West 9.2 mph - N/A   Scattered Clouds
2:30 PM 87.8 °F 95.6 °F 73.4 °F 62% 29.86 in 6.2 mi Variable 8.1 mph - N/A   Scattered Clouds
3:00 PM 86.0 °F 93.4 °F 73.4 °F 66% 29.86 in 6.2 mi West 10.4 mph - N/A   Scattered Clouds
3:30 PM 87.8 °F 95.6 °F 73.4 °F 62% 29.83 in 6.2 mi West 10.4 mph - N/A   Scattered Clouds
4:00 PM 86.0 °F 91.8 °F 71.6 °F 62% 29.83 in 6.2 mi WSW 10.4 mph - N/A   Scattered Clouds
4:30 PM 86.0 °F 91.8 °F 71.6 °F 62% 29.83 in 6.2 mi West 10.4 mph - N/A   Scattered Clouds
5:00 PM 86.0 °F 91.8 °F 71.6 °F 62% 29.83 in 6.2 mi West 10.4 mph - N/A   Scattered Clouds
5:30 PM 84.2 °F 89.6 °F 71.6 °F 66% 29.83 in 6.2 mi Variable 6.9 mph - N/A   Scattered Clouds
6:00 PM 84.2 °F 89.6 °F 71.6 °F 66% 29.83 in 6.2 mi WSW 6.9 mph - N/A   Scattered Clouds
6:30 PM 80.6 °F 85.4 °F 73.4 °F 79% 29.83 in 6.2 mi Variable 3.5 mph - N/A   Mostly Cloudy
7:00 PM 84 °F - 74 °F 65% 29.81 in 6 mi Calm Calm - -   Scattered Clouds
7:00 PM 78.8 °F - 73.4 °F 83% 29.86 in 5.6 mi Variable 2.3 mph - N/A   Mostly Cloudy
7:30 PM 80.6 °F 85.4 °F 73.4 °F 79% 29.86 in 5.6 mi Variable 2.3 mph - N/A   Mostly Cloudy
8:00 PM 78.8 °F - 73.4 °F 83% 29.86 in 5.6 mi Variable 2.3 mph - N/A   Mostly Cloudy
8:30 PM 77.0 °F - 73.4 °F 89% 29.89 in 5.6 mi Calm Calm - N/A   Mostly Cloudy
9:00 PM 77.0 °F - 73.4 °F 89% 29.89 in 5.6 mi Calm Calm - N/A   Mostly Cloudy
9:30 PM 77.0 °F - 73.4 °F 89% 29.89 in 5.6 mi Calm Calm - N/A   Mostly Cloudy
10:00 PM 77.0 °F - 73.4 °F 89% 29.92 in 5.6 mi Calm Calm - N/A   Mostly Cloudy
10:30 PM 77.0 °F - 73.4 °F 89% 29.92 in 5.6 mi Calm Calm - N/A   Mostly Cloudy
11:00 PM 77.0 °F - 73.4 °F 89% 29.92 in 5.6 mi Calm Calm - N/A   Mostly Cloudy
11:30 PM 77.0 °F - 73.4 °F 89% 29.92 in 5.6 mi Calm Calm - N/A   Mostly Cloudy